Regional Weather Roundup
Issued by NWS

Home | Current Version | Previous Version | Graphics & Text | Print | Product List | Glossary On
Versions: 1 2 3 4 5 6 7 8 9 10 11 12 13 14 15 16 17 18 19 20 21 22 23 24 25 26 27 28 29 30 31 32 33 34 35 36 37 38 39 40 41 42 43 44 45 46 47 48 49 50
000
ASUS43 KBIS 271902
RWRND

NORTH DAKOTA REGIONAL WEATHER ROUNDUP
NATIONAL WEATHER SERVICE BISMARCK ND
200 PM CDT THU APR 27 2017

NOTE: "FAIR" INDICATES FEW OR NO CLOUDS BELOW 12,000 FEET WITH NO
SIGNIFICANT WEATHER AND/OR OBSTRUCTIONS TO VISIBILITY.


NDZ001>003-009>011-017-272000-
NORTHWEST NORTH DAKOTA

CITY           SKY/WX    TMP DP  RH WIND       PRES   REMARKS
WILLISTON      FAIR      50  20  30 E9        29.74S
MINOT          FAIR      49  20  31 NE12      29.74F
MINOT AFB      SUNNY     47  18  31 NE13G18   29.73F
$$

NDZ018>021-031>035-040>046-272000-
SOUTHWEST NORTH DAKOTA

CITY           SKY/WX    TMP DP  RH WIND       PRES   REMARKS
BISMARCK       FAIR      50  25  37 N10G18    29.72F
DICKINSON      FAIR      45  23  42 E9        29.68F
GARRISON         N/A     45  22  40 E9        29.72
HETTINGER ARPT SUNNY     45  27  49 E9        29.69F
$$

NDZ004>008-012>016-024-026-027-054-272000-
NORTHEAST NORTH DAKOTA

CITY           SKY/WX    TMP DP  RH WIND       PRES   REMARKS
GRAND FORKS    PTSUNNY   40  28  62 N15       29.68F
GRND FRKS AFB  PTSUNNY   40  28  62 NE14      29.68F
DEVILS LAKE    FAIR      45  26  47 N20G26    29.70F
$$

NDZ022-023-025-028>030-036>039-047>053-272000-
SOUTHEAST NORTH DAKOTA

CITY           SKY/WX    TMP DP  RH WIND       PRES   REMARKS
FARGO          PTSUNNY   33  24  69 N18       29.69F
JAMESTOWN      FAIR      45  30  55 N16G24    29.68S
$$





USA.gov is the U.S. government's official web portal to all federal, state and local government web resources and services.